カタログに戻る

STARLINK-6212

運用中通信VLEO
NORAD 57330·PAYLOAD·🇺🇸 United States

打ち上げ Jul 16, 2023 から Cape Canaveral Space Force Station

Loading…

次のパス (今後24時間)

TLE

最新Source: CelesTrak SupGP

元期: Sep 15, 2026, 02:22 UTC

1 57330C 23099C   26258.09909722 -.00015136  00000+0 -54826-3 0  2585
2 57330  43.0017 262.5642 0001825 270.8874 175.8447 15.27584203    18

AllMySatでSTARLINK-6212をリアルタイム追跡

Download on the App Store